Location: Casa Rossa
(45.2389°N, 12.2056°E)
Time: 03:45:55
(UTC+00:00)

Cosmos 1850 Rocket - Pass Details

Date: 14 July 2020
Orbit: 755 x 785 km, 74.0° (Epoch: 11 August)

Event Time Altitude Azimuth Distance (km) Brightness Sun altitude
Exits shadow 02:46:39 - 219° (SW) 2,394 5.9 -7.9°
Reaches altitude 10° 02:46:48 10° 219° (SW) 2,338 5.8 -7.9°
Maximum altitude 02:51:59 52° 296° (WNW) 975 4.4 -7.2°
Drops below altitude 10° 02:57:12 10° 13° (NNE) 2,351 7.4 -6.5°
Sets 02:59:40 0° 18° (NNE) 3,280 8.4 -6.2°
